| time (UTC) | temp F | wind direction | speed MPH | gust MPH | rain 1hr in | rain 24hr in | rain mn in | humidity % | barometer mb |
| 20260831210057 | 93 | 134 | 2.0 | 7.0 | 0.00 | 0.00 | 0.00 | 54 | 1020.0 |
| 20260831204601 | 93 | 0 | 1.0 | 5.0 | 0.00 | 0.00 | 0.00 | 55 | 1020.2 |
| 20260831203102 | 93 | 0 | 0.0 | 3.0 | 0.00 | 0.00 | 0.00 | 55 | 1020.3 |
| 20260831201602 | 93 | 225 | 1.0 | 8.0 | 0.00 | 0.00 | 0.00 | 57 | 1020.4 |
| 20260831200058 | 92 | 137 | 1.0 | 5.0 | 0.00 | 0.00 | 0.00 | 56 | 1020.5 |
| 20260831194552 | 92 | 244 | 0.0 | 5.0 | 0.00 | 0.00 | 0.00 | 57 | 1020.8 |
| 20260831193128 | 92 | 0 | 1.0 | 6.0 | 0.00 | 0.00 | 0.00 | 57 | 1021.0 |
| 20260831191551 | 92 | 264 | 1.0 | 4.0 | 0.00 | 0.00 | 0.00 | 60 | 1020.9 |
| 20260831190101 | 91 | 299 | 2.0 | 6.0 | 0.00 | 0.00 | 0.00 | 57 | 1021.2 |
| 20260831184602 | 91 | 238 | 0.0 | 7.0 | 0.00 | 0.00 | 0.00 | 61 | 1021.4 |
| 20260831183102 | 91 | 0 | 1.0 | 7.0 | 0.00 | 0.00 | 0.00 | 64 | 1021.5 |
| 20260831181613 | 91 | 0 | 0.0 | 4.0 | 0.00 | 0.00 | 0.00 | 63 | 1021.6 |
| 20260831180107 | 90 | 170 | 1.0 | 6.0 | 0.00 | 0.00 | 0.00 | 65 | 1021.8 |
| 20260831174555 | 89 | 257 | 2.0 | 7.0 | 0.00 | 0.00 | 0.00 | 65 | 1021.9 |
| 20260831173102 | 89 | 249 | 0.0 | 4.0 | 0.00 | 0.00 | 0.00 | 66 | 1022.0 |
| 20260831171600 | 88 | 290 | 0.0 | 4.0 | 0.00 | 0.00 | 0.00 | 69 | 1022.1 |
| 20260831170112 | 87 | 288 | 0.0 | 5.0 | 0.00 | 0.00 | 0.00 | 68 | 1022.3 |
| 20260831164609 | 87 | 0 | 0.0 | 4.0 | 0.00 | 0.00 | 0.00 | 69 | 1022.4 |
| 20260831163100 | 86 | 223 | 0.0 | 7.0 | 0.00 | 0.00 | 0.00 | 71 | 1022.7 |
| 20260831161609 | 86 | 267 | 2.0 | 6.0 | 0.00 | 0.00 | 0.00 | 71 | 1022.6 |
| 20260831160108 | 87 | 188 | 1.0 | 6.0 | 0.00 | 0.00 | 0.00 | 72 | 1022.6 |
| 20260831154618 | 86 | 202 | 1.0 | 5.0 | 0.00 | 0.00 | 0.00 | 72 | 1022.7 |
| 20260831153056 | 86 | 278 | 1.0 | 5.0 | 0.00 | 0.00 | 0.00 | 74 | 1022.7 |
| 20260831151559 | 84 | 286 | 2.0 | 4.0 | 0.00 | 0.00 | 0.00 | 76 | 1022.7 |
| 20260831150105 | 83 | 232 | 1.0 | 4.0 | 0.00 | 0.00 | 0.00 | 76 | 1022.7 |
| 20260831144601 | 83 | 249 | 1.0 | 4.0 | 0.00 | 0.00 | 0.00 | 80 | 1022.7 |
| 20260831143049 | 81 | 0 | 1.0 | 7.0 | 0.00 | 0.00 | 0.00 | 82 | 1022.6 |
| 20260831141604 | 80 | 119 | 3.0 | 7.0 | 0.00 | 0.00 | 0.00 | 83 | 1022.5 |
| 20260831140100 | 79 | 136 | 1.0 | 5.0 | 0.00 | 0.00 | 0.00 | 84 | 1022.3 |
| 20260831134607 | 78 | 130 | 1.0 | 5.0 | 0.00 | 0.00 | 0.00 | 85 | 1022.3 |
| 20260831133055 | 77 | 156 | 3.0 | 7.0 | 0.00 | 0.00 | 0.00 | 87 | 1022.4 |
| 20260831131601 | 76 | 145 | 4.0 | 8.0 | 0.00 | 0.00 | 0.00 | 88 | 1022.3 |
| 20260831130056 | 75 | 140 | 3.0 | 7.0 | 0.00 | 0.00 | 0.00 | 90 | 1022.3 |
| 20260831124555 | 74 | 142 | 0.0 | 3.0 | 0.00 | 0.00 | 0.00 | 91 | 1022.1 |
| 20260831123055 | 73 | 140 | 1.0 | 3.0 | 0.00 | 0.00 | 0.00 | 92 | 1022.0 |
| 20260831121556 | 72 | 142 | 2.0 | 3.0 | 0.00 | 0.00 | 0.00 | 95 | 1021.8 |
| 20260831120052 | 71 | 0 | 0.0 | 0.0 | 0.00 | 0.00 | 0.00 | 95 | 1021.6 |
| 20260831114602 | 70 | 0 | 0.0 | 0.0 | 0.00 | 0.00 | 0.00 | 95 | 1021.5 |
| 20260831113102 | 70 | 0 | 0.0 | 0.0 | 0.00 | 0.00 | 0.00 | 95 | 1021.4 |
| 20260831111557 | 70 | 0 | 0.0 | 2.0 | 0.00 | 0.00 | 0.00 | 95 | 1021.3 |
| 20260831110052 | 71 | 0 | 0.0 | 1.0 | 0.00 | 0.00 | 0.00 | 94 | 1021.4 |
| 20260831104600 | 71 | 0 | 0.0 | 0.0 | 0.00 | 0.00 | 0.00 | 93 | 1021.0 |
| 20260831103056 | 71 | 0 | 0.0 | 3.0 | 0.00 | 0.00 | 0.00 | 93 | 1021.1 |
| 20260831101601 | 72 | 140 | 2.0 | 5.0 | 0.00 | 0.00 | 0.00 | 93 | 1020.9 |
| 20260831100106 | 72 | 134 | 1.0 | 3.0 | 0.00 | 0.00 | 0.00 | 92 | 1020.8 |
| 20260831094600 | 72 | 132 | 2.0 | 5.0 | 0.00 | 0.00 | 0.00 | 93 | 1020.7 |
| 20260831093107 | 72 | 0 | 0.0 | 0.0 | 0.00 | 0.00 | 0.00 | 93 | 1020.7 |
| 20260831091550 | 72 | 0 | 0.0 | 0.0 | 0.00 | 0.00 | 0.00 | 94 | 1020.7 |
| 20260831090059 | 72 | 0 | 0.0 | 0.0 | 0.00 | 0.00 | 0.00 | 94 | 1020.6 |
| 20260831084559 | 71 | 0 | 0.0 | 0.0 | 0.00 | 0.00 | 0.00 | 94 | 1020.5 |
| 20260831083110 | 72 | 0 | 0.0 | 0.0 | 0.00 | 0.00 | 0.00 | 93 | 1020.3 |
| 20260831081601 | 72 | 0 | 0.0 | 0.0 | 0.00 | 0.00 | 0.00 | 93 | 1020.3 |
| 20260831080123 | 72 | 0 | 0.0 | 0.0 | 0.00 | 0.00 | 0.00 | 94 | 1020.2 |
| 20260831074602 | 72 | 0 | 0.0 | 0.0 | 0.00 | 0.00 | 0.00 | 94 | 1020.3 |
| 20260831073059 | 72 | 0 | 0.0 | 0.0 | 0.00 | 0.00 | 0.00 | 94 | 1020.5 |
| 20260831071556 | 73 | 0 | 0.0 | 0.0 | 0.00 | 0.00 | 0.00 | 93 | 1020.3 |
| 20260831070052 | 73 | 0 | 0.0 | 0.0 | 0.00 | 0.00 | 0.00 | 93 | 1020.4 |
| 20260831064557 | 73 | 0 | 0.0 | 0.0 | 0.00 | 0.00 | 0.00 | 92 | 1020.4 |
| 20260831063111 | 74 | 0 | 0.0 | 3.0 | 0.00 | 0.00 | 0.00 | 91 | 1020.5 |
| 20260831061559 | 74 | 137 | 1.0 | 5.0 | 0.00 | 0.00 | 0.00 | 91 | 1020.6 |
| 20260831060056 | 74 | 138 | 1.0 | 4.0 | 0.00 | 0.00 | 0.00 | 91 | 1020.6 |
| 20260831054559 | 74 | 0 | 0.0 | 0.0 | 0.00 | 0.00 | 0.00 | 90 | 1020.8 |
| 20260831053130 | 75 | 0 | 0.0 | 3.0 | 0.00 | 0.00 | 0.00 | 90 | 1020.8 |
| 20260831051556 | 75 | 138 | 1.0 | 3.0 | 0.00 | 0.00 | 0.00 | 90 | 1020.7 |
| 20260831050055 | 75 | 0 | 0.0 | 4.0 | 0.00 | 0.00 | 0.00 | 89 | 1020.8 |
| 20260831044641 | 76 | 0 | 0.0 | 0.0 | 0.00 | 0.00 | 0.00 | 88 | 1020.7 |
| 20260831043057 | 76 | 0 | 0.0 | 0.0 | 0.00 | 0.00 | 0.00 | 87 | 1020.7 |
| 20260831041609 | 77 | 0 | 0.0 | 0.0 | 0.00 | 0.00 | 0.00 | 86 | 1020.8 |
| 20260831040104 | 77 | 0 | 0.0 | 2.0 | 0.00 | 0.00 | 0.00 | 85 | 1020.7 |
| 20260831034606 | 77 | 138 | 0.0 | 2.0 | 0.00 | 0.00 | 0.00 | 85 | 1020.8 |
| 20260831033110 | 77 | 138 | 1.0 | 3.0 | 0.00 | 0.00 | 0.00 | 84 | 1020.7 |
| 20260831031556 | 77 | 132 | 0.0 | 3.0 | 0.00 | 0.00 | 0.00 | 84 | 1020.7 |
| 20260831030052 | 78 | 0 | 0.0 | 0.0 | 0.00 | 0.00 | 0.00 | 84 | 1020.8 |
| 20260831024557 | 78 | 0 | 0.0 | 2.0 | 0.00 | 0.00 | 0.00 | 83 | 1020.6 |
| 20260831023100 | 78 | 132 | 1.0 | 2.0 | 0.00 | 0.00 | 0.00 | 82 | 1020.7 |
| 20260831021557 | 79 | 132 | 1.0 | 5.0 | 0.00 | 0.00 | 0.00 | 81 | 1020.5 |
| 20260831020053 | 80 | 136 | 3.0 | 7.0 | 0.00 | 0.00 | 0.00 | 78 | 1020.4 |
| 20260831014558 | 80 | 0 | 0.0 | 0.0 | 0.00 | 0.00 | 0.00 | 77 | 1020.4 |
| 20260831013058 | 80 | 0 | 0.0 | 0.0 | 0.00 | 0.00 | 0.00 | 77 | 1020.1 |
| 20260831011557 | 82 | 0 | 0.0 | 0.0 | 0.00 | 0.00 | 0.00 | 75 | 1020.2 |
| 20260831004607 | 83 | 0 | 0.0 | 0.0 | 0.00 | 0.00 | 0.00 | 71 | 1019.7 |
| 20260831003059 | 84 | 0 | 0.0 | 3.0 | 0.00 | 0.00 | 0.00 | 70 | 1019.7 |
| 20260831001555 | 84 | 0 | 0.0 | 0.0 | 0.00 | 0.00 | 0.00 | 69 | 1019.5 |
| 20260831000110 | 85 | 0 | 0.0 | 0.0 | 0.00 | 0.00 | 0.00 | 68 | 1019.6 |
| 20260830234606 | 86 | 0 | 0.0 | 0.0 | 0.00 | 0.00 | 0.00 | 66 | 1019.5 |
| 20260830233058 | 87 | 0 | 0.0 | 4.0 | 0.00 | 0.00 | 0.00 | 65 | 1019.4 |
| 20260830231602 | 88 | 143 | 2.0 | 5.0 | 0.00 | 0.00 | 0.00 | 63 | 1019.6 |
| 20260830230057 | 88 | 0 | 0.0 | 6.0 | 0.00 | 0.00 | 0.00 | 63 | 1019.7 |
| 20260830224552 | 89 | 139 | 1.0 | 6.0 | 0.00 | 0.00 | 0.00 | 62 | 1019.6 |
| 20260830223051 | 89 | 109 | 2.0 | 5.0 | 0.00 | 0.00 | 0.00 | 62 | 1019.6 |
| 20260830221557 | 89 | 132 | 1.0 | 7.0 | 0.00 | 0.00 | 0.00 | 62 | 1019.5 |
| 20260830220101 | 89 | 130 | 3.0 | 5.0 | 0.00 | 0.00 | 0.00 | 61 | 1019.6 |
| 20260830214554 | 90 | 131 | 2.0 | 5.0 | 0.00 | 0.00 | 0.00 | 61 | 1019.5 |
| 20260830213107 | 90 | 148 | 3.0 | 7.0 | 0.00 | 0.00 | 0.00 | 63 | 1019.5 |
| 20260830211605 | 90 | 0 | 0.0 | 6.0 | 0.00 | 0.00 | 0.00 | 62 | 1019.6 |